Location: Batang Balui
(2.7000°N, 113.7833°E)
Time: 16:18:23
(UTC+00:00)

Delta 2 Rocket - Pass Details

Date: 03 July 2022
Orbit: 413 x 780 km, 35.6° (Epoch: 17 August)

Event Time Altitude Azimuth Distance (km) Brightness Sun altitude
Exits shadow 21:08:20 33° 250° (WSW) 1,103 4.3 -17.4°
Maximum altitude 21:09:33 38° 216° (SW) 1,010 4.2 -17.2°
Drops below altitude 10° 21:14:20 10° 149° (SSE) 2,196 6.5 -16.1°
Sets 21:17:02 0° 141° (SE) 3,166 7.4 -15.5°
